TimeAKST,TemperatureF,Dew PointF,Humidity,Sea Level PressureIn,VisibilityMPH,Wind Direction,Wind SpeedMPH,Gust SpeedMPH,PrecipitationIn,Events,Conditions,WindDirDegrees,DateUTC
12:53 AM,-2.0,-4.0,91,30.12,10.0,NNW,4.6,-,N/A,,Partly Cloudy,330,2013-11-07 09:53:00
1:53 AM,-0.0,-4.0,83,30.10,10.0,WNW,3.5,-,N/A,,Overcast,300,2013-11-07 10:53:00
3:53 AM,9.0,5.0,84,30.08,10.0,Calm,Calm,-,N/A,,Overcast,0,2013-11-07 12:53:00
4:05 AM,9.0,6.1,88,29.94,10.0,NW,3.5,-,N/A,,Overcast,320,2013-11-07 13:05:00
4:53 AM,10.9,7.0,84,30.07,10.0,NW,4.6,-,N/A,,Overcast,320,2013-11-07 13:53:00
5:53 AM,12.0,8.1,84,30.07,10.0,WNW,3.5,-,N/A,,Overcast,300,2013-11-07 14:53:00
6:53 AM,12.9,9.0,84,30.06,10.0,NW,3.5,-,N/A,,Overcast,320,2013-11-07 15:53:00
7:53 AM,10.9,8.1,88,30.06,10.0,Calm,Calm,-,N/A,,Overcast,0,2013-11-07 16:53:00
8:53 AM,12.9,9.0,84,30.04,10.0,Calm,Calm,-,N/A,,Overcast,0,2013-11-07 17:53:00
10:53 AM,14.0,8.1,77,30.04,10.0,North,4.6,-,N/A,,Overcast,360,2013-11-07 19:53:00
11:14 AM,14.0,8.1,77,29.88,10.0,North,5.8,-,N/A,,Overcast,360,2013-11-07 20:14:00
11:53 AM,15.1,8.1,74,30.04,10.0,North,3.5,-,N/A,,Overcast,10,2013-11-07 20:53:00
12:53 PM,17.1,8.1,68,30.03,10.0,North,4.6,-,N/A,,Overcast,10,2013-11-07 21:53:00
1:53 PM,17.1,8.1,68,30.01,10.0,NE,3.5,-,N/A,,Overcast,50,2013-11-07 22:53:00
2:53 PM,16.0,9.0,74,30.00,10.0,Calm,Calm,-,N/A,,Overcast,0,2013-11-07 23:53:00
3:53 PM,17.1,9.0,71,29.99,10.0,Calm,Calm,-,N/A,,Overcast,0,2013-11-08 00:53:00
4:53 PM,15.1,9.0,77,29.98,10.0,Calm,Calm,-,N/A,,Overcast,0,2013-11-08 01:53:00
5:53 PM,12.9,9.0,84,29.97,10.0,Calm,Calm,-,N/A,,Overcast,0,2013-11-08 02:53:00
6:53 PM,10.0,7.0,87,29.98,10.0,Calm,Calm,-,N/A,,Overcast,0,2013-11-08 03:53:00
7:53 PM,7.0,3.9,87,29.99,10.0,NNE,4.6,-,N/A,,Overcast,20,2013-11-08 04:53:00
8:14 PM,7.0,3.9,87,29.84,10.0,NNW,3.5,-,N/A,,Overcast,330,2013-11-08 05:14:00
8:35 PM,7.0,3.9,87,29.84,10.0,NNW,4.6,-,N/A,,Scattered Clouds,330,2013-11-08 05:35:00
8:53 PM,6.1,3.0,87,30.00,10.0,North,4.6,-,N/A,,Partly Cloudy,350,2013-11-08 05:53:00
9:53 PM,6.1,1.9,83,30.01,10.0,NNW,4.6,-,N/A,,Overcast,330,2013-11-08 06:53:00
10:53 PM,8.1,3.9,83,30.02,10.0,Calm,Calm,-,N/A,,Overcast,0,2013-11-08 07:53:00
11:53 PM,3.9,1.0,88,30.04,10.0,North,3.5,-,N/A,,Mostly Cloudy,10,2013-11-08 08:53:00